www.pogodaiklimat.ru

Погода и климат >> Архив погоды >> Аргентина >> Тартагаль


ПОГОДА в Тартагале

  • Прогноз погоды в Тартагале
  • Монитор погоды в Тартагале

АРХИВ ПОГОДЫ в Тартагале

Время (UTC), дата Ветер
(напр.,м/с)
 
Видим.   Явления Облачность Т
(С)
Тd
(С)
f
(%)
Тe
(С)
Тes
(С)
Комфортность P
(гПа)
Po
(гПа)
Тmin
(С)
Tmax
(С)
R
(мм)
R24
(мм)
S
(см)
00 13.06 штиль 0 10 км 6/0
[Ac und]
+19.5 +18.1 92 +22 +22 комфорт 1007.1 956.4 +18.5 +25.2
06 13.06 штиль 0 10 км 10/0
[Ac As]
+20.0 +18.4 91 +23 +23 комфорт 1007.2 956.8
09 13.06 штиль 0 10 км 6/0
[Ac und]
+19.4 +17.9 91 +21 +21 комфорт 1006.3 955.9
12 13.06 штиль 0 10 км 10/4 1200 м
[Sc Ac As]
+19.5 +17.4 88 +22 +22 комфорт 1008.4 957.8 +17.7 +19.7
15 13.06 штиль 0 10 км 9/0
[Ac As]
+25.2 +19.1 69 +30 +35 душно 957.8
18 13.06 СВ 4 10 км 10/5 900 м
[Sc Ac As]
+25.0 +19.2 70 +30 +31 душно 1005.0 955.0
21 13.06 СВ 3 10 км 9/5 900 м
[Sc Ac As]
+25.0 +19.4 71 +30 +30 душно 1004.0 954.1
00 14.06 штиль 0 10 км 9/0
[Ac As]
+22.0 +20.5 91 +28 +28 душно 1006.0 955.8 +19.5 +26.8
06 14.06 штиль 0 10 км 9/0
[Ac As]
+21.6 +20.1 91 +27 +27 душно 1007.5 957.5
09 14.06 ЮЗ 4 10 км 10/10 600 м
[St]
+21.2 +19.3 89 +26 +26 душно 1008.6 958.6
12 14.06 ЮЗ 7 6000 м осадки на расстоянии 10/10 300 м
[Frnb]
+21.1 +19.6 91 +26 +26 душно 1011.5 960.8 +20.6 +22.0
15 14.06 Ю 7 2000 м слаб. морось туман 10/10 210 м
[Frnb]
+20.5 +19.6 95 +24 +24 комфорт 962.3
18 14.06 Ю 4 3000 м слаб. морось туман 10/10 210 м
[Frnb]
+20.5 +19.2 92 +25 +25 комфорт 1010.7 960.4 0.0
21 14.06 В 3 3500 м слаб. морось туман 10/10 210 м
[Frnb]
+19.7 +19.1 96 +23 +23 комфорт 1010.4 960.0
00 15.06 ЮЗ 3 10 км {морось} 10/10 300 м
[Frnb]
+18.6 +17.6 94 +20 +20 1012.4 961.4 +18.6 +21.2 0.0
06 15.06 штиль 0 10 км 10/10 300 м
[Frnb]
+17.4 +16.7 96 +17 +17 1011.6 960.6
09 15.06 штиль 0 5000 м слаб. морось 10/10 300 м
[Frnb]
+16.2 +15.8 97 +16 +16 1011.2 960.2
12 15.06 Ю 4 4000 м морось 10/10 240 м
[Frnb]
+16.0 +15.6 97 +15 +15 1013.6 962.2 +16.0 +18.6 0.6
15 15.06 Ю 4 4000 м слаб. морось туман 10/10 240 м
[Frnb]
+15.2 +14.9 98 +14 +14 963.2
18 15.06 Ю 4 5000 м слаб. морось туман 10/10 240 м
[Frnb]
+15.2 +14.9 98 +14 +14 1013.1 961.6 1
21 15.06 Ю 7 4000 м морось туман 10/10 240 м
[Frnb]
+14.4 +14.1 98 +12 +12 1014.7 963.0
00 16.06 Ю 2 2000 м морось туман 10/10 150 м
[Frnb]
+13.2 +13.2 100 +12 +12 1018.0 966.3 +13.2 +16.0 2
06 16.06 Ю 2 3000 м морось 10/10 150 м
[Frnb]
+12.5 +12.2 98 +11 +11 1021.1 968.6 3
09 16.06 Ю 1 3000 м морось 10/10 150 м
[Frnb]
+10.7 +10.5 99 +10 +10 1021.9 969.4
12 16.06 Ю 1 3000 м сильная пыльная буря {морось} 10/10 150 м
[Frnb]
+10.2 +10.2 100 +10 +10 1025.4 972.4 +9.6 +13.2 0.8
15 16.06 Ю 5 10 км 10/10 450 м
[Frnb]
+10.5 +8.5 87 +7 +7 972.8
18 16.06 Ю 3 10 км 10/10 750 м
[Sc]
+12.1 +7.4 73 +11 +11 1021.8 969.2 0.0
21 16.06 ЮЗ 3 10 км 10/4 900 м
[Sc Ac As]
+11.5 +8.7 83 +10 +10 1022.2 969.2
00 17.06 штиль 0 10 км 10/4 900 м
[Sc Ac As]
+10.6 +9.0 90 +10 +10 1023.8 970.8 +9.5 +12.4
06 17.06 штиль 0 10 км 10/6 300 м
[St]
+9.8 +8.9 94 +9 +9 1023.5 970.6
09 17.06 штиль 0 10 км в посл. час морось 10/6 450 м
[Frnb]
+8.6 +7.8 95 +8 +8 1022.7 969.8
12 17.06 0 в посл. час морось н/о 1023.8 +8.2 +10.6 0.0
15 17.06 З 3 10 км 10/10 360 м
[Frnb]
+11.0 +6.3 73 +9 +9 969.2
18 17.06 штиль 0 10 км 10/10 750 м
[Sc]
+11.4 +6.3 71 +11 +11 1017.4 964.8
21 17.06 Ю 1 8000 м осадки на расстоянии 10/10 300 м
[Frnb]
+10.4 +7.5 82 +10 +10 1015.6 962.7
00 18.06 Ю 1 10 км 10/10 450 м
[St]
+9.8 +7.7 87 +9 +9 1016.2 963.2 +8.4 +11.5
06 18.06 Ю 1 10 км {морось} 10/10 450 м
[Frnb]
+9.8 +8.9 94 +9 +9 1014.6 962.0 2
09 18.06 Ю 1 6000 м слаб. морось 10/10 360 м
[Frnb]
+9.8 +9.2 96 +9 +9 1015.1 962.6
12 18.06 Ю 3 2500 м слаб. морось туман 10/10 150 м
[Frnb]
+10.1 +9.7 97 +8 +8 1018.4 965.5 +8.9 +10.1 0.4
15 18.06 Ю 7 1500 м слаб. морось туман 10/10 150 м
[Frnb]
+10.5 +10.1 97 +7 +7 967.5
18 18.06 Ю 7 3500 м слаб. морось туман 10/10 150 м
[Frnb]
+11.7 +10.9 95 +8 +8 1017.9 965.4 0.1
21 18.06 Ю 4 3000 м слаб. морось туман 10/10 150 м
[Frnb]
+10.9 +10.5 97 +8 +8 1018.0 965.5
00 19.06 штиль 0 10 км 9/5 450 м
[Frnb Ac As]
+10.5 +9.5 94 +10 +10 1019.6 967.1 +9.3 +12.0 0.6
06 19.06 штиль 0 10 км 10/0
[Ac As]
+11.0 +10.1 94 +10 +10 1022.7 969.8
09 19.06 штиль 0 10 км ясно +9.8 +9.2 96 +9 +9 1022.7 969.8
12 19.06 штиль 0 10 км ясно +8.3 +6.8 90 +7 +9 1024.7 971.4 +6.3 +10.5 0.7
15 19.06 штиль 0 10 км ясно +15.8 +8.4 61 +16 +28 опасность
простуды
971.8
18 19.06 ЮВ 2 10 км ясно +18.9 +7.9 49 +20 +28 1021.6 969.5
21 19.06 штиль 0 10 км ясно +18.8 +8.5 51 +19 +20 1021.0 968.8

 

Местоположение метеостанции Тартагаль (Аргентина): широта -22.62 долгота -63.80 высота над уровнем моря 450 м.

В архиве по умолчанию представлена погода в Тартагале за последнюю неделю. Архивные данные за месяц целиком и за предыдущие месяцы, начиная с января 2011 года, Вы можете получить, выбрав интересующий диапазон дат из раскрывающегося списка и нажав кнопку "Ввод!".


*Определитесь, кто Вы:
робот инопланетянин человек

Внимание! Время в таблицах - всемирное. Для получения местного времени необходимо прибавить поправку, которая равна -3 ч.

Смотрите также архив погоды в соседних городах и на ближайших метеорологических станциях:

Погода в Бермехо (Боливия) (55 км)
Погода в Якуибе (Боливия) (76 км)
Погода в Сан-Рамон-де-ла-Нуэва-Оране (Аргентина) (79 км)
Погода в Тарихе (Боливия) (151 км)
Погода в Вилья-Монтесе (Боливия) (157 км)
Погода в Ла-Кьяке (Аргентина) (194 км)
Погода в Сан-Сальвадор-де-Жужуе (Аргентина) (235 км)
Погода в Пратс-Гиле (Парагвай) (236 км)
Погода в Камири (Боливия) (293 км)
Погода в Сальте (Аргентина) (301 км)

Пояснения к столбцам:

Ветер - указаны скорость ветра в м/с - средняя за 10 мин, порывы в срок и между сроками (в фигурных скобках) и направление, откуда дует ветер: С - северный, СВ - северо-восточный, В - восточный, ЮВ - юго-восточный, Ю - южный, ЮЗ - юго-западный, З - западный, СЗ - северо-западный.
Видимость - горизонтальная дальность видимости в метрах или километрах. При видимости от 1 до 10 км при отсутствии осадков обычно наблюдается дымка, при ухудшении видимости до 1 км и менее - туман. В сухую погоду видимость может ухудшаться дымом, пылью или мглою.
Явления - указаны атмосферные явления, наблюдавшиеся в срок или в последний час перед сроком; фигурными скобками обозначены явления, наблюдавшиеся между сроками (за 1-3 часа до срока); квадратными скобками обозначены град или гололедные отложения с указанием их диаметра в мм.
Облачность - указаны через наклонную черту общая и нижняя облачность в баллах и высота нижней границы облаков в метрах; квадратными скобками обозначены формы облаков: Ci - перистые, Cs - перисто-слоистые, Cc - перисто-кучевые, Ac - высококучевые, As - высокослоистые, Sc - слоисто-кучевые, Ns - слоисто-дождевые, Cu - кучевые, Cb - кучево-дождевые. Подробнее классификацию облаков см. в Атласе облаков (PDF).
T - Температура воздуха - температура, измеренная на высоте 2 м над землей.
Td - Температура точки росы - температура, при понижении до которой содержащийся в воздухе водяной пар достигнет насыщения.
f - Относительная влажность воздуха - влажноcть воздуха, измеренная на высоте 2 м над землей.
Te - Эффективная температура - температура, которую ощущает одетый по сезону человек в тени. Характеристика душности погоды. При расчете учитывается влияние влажности воздуха и скорости ветра на теплоощущения человека.
Tes - Эффективная температура на солнце - температура, которую ощущает человек, с поправкой на солнечный нагрев. Характеристика знойности погоды. Зависит от высоты солнца над горизонтом, облачности и скорости ветра. Ночью, в пасмурную погоду, а также при ветре 12 м/с и более поправка равна нулю.
P - Атмосферное давление - приведенное к уровню моря атмосферное давление.
Po - Атмосферное давление - измеренное на уровне метеостанции атмосферное давление.
Tmin - Минимальная температура - минимум температуры воздуха на высоте 2 м над землей.
Tmax - Максимальная температура - максимум температуры воздуха на высоте 2 м над землей.
R - Количество осадков - Количество выпавших осадков за период времени, мм. При наведении курсора мыши на число - период времени, за который выпало указанное количество осадков.
R24 - Количество осадков - Количество выпавших осадков за 24 часа, мм.
S - Снежный покров - Высота снежного покрова, см. При наведении курсора мыши на число - состояние снежного покрова и степень покрытия местности в баллах.